Weather History for KCDA - February, 2013

Change the Weather History Date:

Monday, February 18, 2013

  Actual Average (K1V4) Record (K1V4)
Temperature  
Mean Temperature 11 °F 20 °F  
Max Temperature 19 °F 32 °F 59 °F (1981)
Min Temperature 3 °F 8 °F -31 °F (1979)
Degree Days  
Heating Degree Days 54 45  
Month to date heating degree days 843  
Since 1 July heating degree days 5292  
Cooling Degree Days 0 0  
Month to date cooling degree days 0  
Year to date cooling degree days 0  
Moisture  
Dew Point -8 °F    
Average Humidity 48    
Maximum Humidity 70    
Minimum Humidity 22    
Precipitation  
Precipitation 0.00 in 0.07 in 1.27 in (1952)
Month to date precipitation 1.43  
Year to date precipitation 3.94  
Sea Level Pressure  
Sea Level Pressure 29.93 in    
Wind  
Wind Speed 12 mph (SW)    
Max Wind Speed 20 mph    
Max Gust Speed 28 mph    
Visibility 8 miles    
Events      
T = Trace of Precipitation, MM = Missing Value Source: NWS Daily Summary

Daily Weather History Graph

Daily Weather History Graph

Search for Another Location

Airport or City:

Trip Planner

Search our weather history database for the weather conditions in past years. The results will help you decide how hot, cold, wet, or windy it might be!

Date:

Astronomy

Feb. 18, 2013 Rise Set
Actual Time 6:43 AM EST 5:21 PM EST
Civil Twilight 6:13 AM EST 5:51 PM EST
Nautical Twilight 5:39 AM EST 6:25 PM EST
Astronomical Twilight 5:05 AM EST 6:58 PM EST
Moon 10:58 AM EST (2/18) 1:26 AM EST (2/18)
Length of Visible Light 11h 37m
Length of Day
10h 38m
First Quarter, 58% of the Moon is Illuminated
Feb 18
First Quarter
Feb 25
Full
Mar 4
Last Quarter
Mar 11
New
Mar 19
First Quarter

Hourly Weather History & Observations

Time (EST) Temp. Windchill Dew Point Humidity Pressure Visibility Wind Dir Wind Speed Gust Speed Precip Events Conditions
12:15 AM 7.3 °F -7.1 °F -0.8 °F 69% 29.69 in 4.0 mi SW 10.4 mph 16.1 mph N/A   Haze
12:35 AM 7.2 °F -8.1 °F -1.8 °F 67% 29.70 in 4.0 mi SW 11.5 mph 27.6 mph N/A   Haze
12:55 AM 6.8 °F -11.3 °F -2.7 °F 65% 29.71 in 5.0 mi SW 16.1 mph 26.5 mph N/A   Haze
1:15 AM 6.4 °F -8.2 °F -3.1 °F 65% 29.72 in 5.0 mi SW 10.4 mph 25.3 mph N/A   Haze
1:35 AM 6.3 °F -12.0 °F -3.3 °F 65% 29.72 in 7.0 mi SW 16.1 mph 26.5 mph N/A   Unknown
1:55 AM 5.9 °F -9.7 °F -3.1 °F 67% 29.73 in 5.0 mi SW 11.5 mph 21.9 mph N/A   Haze
2:15 AM 5.7 °F -13.2 °F -2.9 °F 68% 29.74 in 5.0 mi SW 17.3 mph 21.9 mph N/A   Haze
2:35 AM 5.0 °F -13.0 °F -3.3 °F 69% 29.76 in 4.0 mi SW 15.0 mph 21.9 mph N/A   Haze
2:55 AM 4.8 °F -11.8 °F -3.6 °F 68% 29.77 in 4.0 mi SW 12.7 mph 19.6 mph N/A   Haze
3:15 AM 4.3 °F -12.5 °F -4.5 °F 67% 29.78 in 5.0 mi SW 12.7 mph 17.3 mph N/A   Haze
3:35 AM 4.1 °F -10.2 °F -4.4 °F 68% 29.79 in 5.0 mi SW 9.2 mph 20.7 mph N/A   Haze
3:55 AM 3.9 °F -10.4 °F -4.2 °F 69% 29.79 in 4.0 mi SW 9.2 mph 17.3 mph N/A   Haze
4:15 AM 3.9 °F -6.9 °F -4.0 °F 70% 29.80 in 5.0 mi SW 5.8 mph - N/A   Haze
4:35 AM 3.9 °F -8.2 °F -4.4 °F 69% 29.81 in 7.0 mi SW 6.9 mph - N/A   Unknown
4:55 AM 3.9 °F -12.2 °F -4.5 °F 68% 29.82 in 7.0 mi SW 11.5 mph - N/A   Unknown
5:15 AM 3.7 °F -12.4 °F -4.9 °F 67% 29.82 in 5.0 mi SW 11.5 mph 21.9 mph N/A   Haze
5:35 AM 3.6 °F -11.8 °F -5.1 °F 67% 29.83 in 5.0 mi SW 10.4 mph 19.6 mph N/A   Haze
5:55 AM 3.4 °F -15.0 °F -5.3 °F 67% 29.84 in 5.0 mi SW 15.0 mph 24.2 mph N/A   Haze
6:15 AM 3.2 °F -15.9 °F -5.6 °F 67% 29.85 in 7.0 mi SW 16.1 mph 26.5 mph N/A   Unknown
6:35 AM 3.2 °F -11.3 °F -5.8 °F 66% 29.87 in 7.0 mi SW 9.2 mph 23.0 mph N/A   Unknown
6:55 AM 3.2 °F -14.6 °F -5.4 °F 67% 29.87 in 7.0 mi SW 13.8 mph 17.3 mph N/A   Unknown
7:15 AM 3.0 °F -11.5 °F -5.6 °F 67% 29.88 in 5.0 mi SW 9.2 mph 19.6 mph N/A   Haze
7:35 AM 3.0 °F -14.8 °F -5.3 °F 68% 29.90 in 5.0 mi SW 13.8 mph 19.6 mph N/A   Haze
7:55 AM 3.4 °F -12.9 °F -5.1 °F 68% 29.90 in 5.0 mi SW 11.5 mph - N/A   Haze
8:15 AM 4.1 °F -14.7 °F -5.6 °F 64% 29.90 in 5.0 mi SW 16.1 mph 25.3 mph N/A   Haze
8:35 AM 5.0 °F -13.0 °F -5.1 °F 63% 29.91 in 7.0 mi SW 15.0 mph 21.9 mph N/A   Unknown
8:55 AM 5.7 °F -13.2 °F -5.1 °F 61% 29.92 in 10.0 mi SW 17.3 mph 26.5 mph N/A   Unknown
9:15 AM 6.4 °F -11.1 °F -4.9 °F 60% 29.93 in 10.0 mi SW 15.0 mph 24.2 mph N/A   Unknown
9:35 AM 7.5 °F -9.7 °F -4.4 °F 58% 29.94 in 10.0 mi SW 15.0 mph 20.7 mph N/A   Unknown
9:55 AM 8.4 °F -5.7 °F -4.5 °F 56% 29.94 in 10.0 mi SW 10.4 mph 19.6 mph N/A   Unknown
10:15 AM 9.5 °F -6.6 °F -4.2 °F 54% 29.95 in 10.0 mi SW 13.8 mph 19.6 mph N/A   Unknown
10:35 AM 10.6 °F -6.9 °F -4.2 °F 51% 29.95 in 10.0 mi SW 17.3 mph 24.2 mph N/A   Unknown
10:55 AM 11.7 °F -1.7 °F -4.0 °F 50% 29.95 in 10.0 mi SW 10.4 mph 24.2 mph N/A   Unknown
11:15 AM 12.7 °F -3.0 °F -3.6 °F 48% 29.95 in 10.0 mi SW 15.0 mph 24.2 mph N/A   Unknown
11:35 AM 14.2 °F -2.3 °F -4.0 °F 44% 29.95 in 10.0 mi SW 17.3 mph 25.3 mph N/A   Unknown
11:55 AM 15.1 °F -0.1 °F -4.0 °F 43% 29.95 in 10.0 mi SW 15.0 mph 20.7 mph N/A   Unknown
12:15 PM 16.2 °F 2.5 °F -4.4 °F 40% 29.95 in 10.0 mi SW 12.7 mph 20.7 mph N/A   Unknown
12:35 PM 17.2 °F 1.2 °F -4.9 °F 37% 29.94 in 10.0 mi SW 18.4 mph 23.0 mph N/A   Unknown
12:55 PM 17.1 °F 0.6 °F -6.7 °F 35% 29.94 in 10.0 mi SW 19.6 mph 27.6 mph N/A   Unknown
1:15 PM 18.3 °F 3.6 °F -8.3 °F 30% 29.94 in 10.0 mi SW 16.1 mph 23.0 mph N/A   Unknown
1:35 PM 18.9 °F 4.3 °F -10.7 °F 27% 29.94 in 10.0 mi SW 16.1 mph 20.7 mph N/A   Unknown
1:55 PM 19.4 °F 6.0 °F -12.3 °F 24% 29.95 in 10.0 mi SW 13.8 mph 20.7 mph N/A   Unknown
2:15 PM 19.6 °F 7.4 °F -11.4 °F 25% 29.96 in 10.0 mi SW 11.5 mph 21.9 mph N/A   Unknown
2:35 PM 19.8 °F 4.1 °F -12.5 °F 24% 29.96 in 10.0 mi SW 19.6 mph 24.2 mph N/A   Unknown
2:55 PM 19.9 °F 5.2 °F -12.6 °F 23% 29.96 in 10.0 mi SW 17.3 mph 24.2 mph N/A   Unknown
3:15 PM 19.9 °F 4.8 °F -13.5 °F 22% 29.96 in 10.0 mi SW 18.4 mph 25.3 mph N/A   Unknown
3:35 PM 19.4 °F 6.0 °F -13.2 °F 23% 29.97 in 10.0 mi SW 13.8 mph 26.5 mph N/A   Unknown
3:55 PM 19.4 °F 5.5 °F -13.5 °F 23% 29.98 in 10.0 mi SW 15.0 mph 23.0 mph N/A   Unknown
4:15 PM 19.0 °F 6.8 °F -13.9 °F 23% 29.99 in 10.0 mi SW 11.5 mph 19.6 mph N/A   Unknown
4:35 PM 18.5 °F 4.9 °F -14.3 °F 23% 30.01 in 10.0 mi SW 13.8 mph 21.9 mph N/A   Unknown
4:55 PM 18.1 °F 6.3 °F -13.5 °F 24% 30.02 in 10.0 mi SW 10.4 mph 18.4 mph N/A   Unknown
5:15 PM 17.1 °F 2.5 °F -13.0 °F 26% 30.02 in 10.0 mi SW 15.0 mph 19.6 mph N/A   Unknown
5:35 PM 16.5 °F 1.3 °F -12.8 °F 27% 30.03 in 10.0 mi SW 16.1 mph - N/A   Unknown
5:55 PM 16.0 °F 6.3 °F -12.5 °F 28% 30.04 in 10.0 mi SW 6.9 mph 17.3 mph N/A   Unknown
6:15 PM 15.6 °F 7.0 °F -12.8 °F 28% 30.05 in 10.0 mi SW 5.8 mph - N/A   Unknown
6:35 PM 14.7 °F 9.0 °F -13.0 °F 28% 30.06 in 10.0 mi SW 3.5 mph - N/A   Unknown
6:55 PM 13.8 °F 8.0 °F -11.9 °F 31% 30.07 in 10.0 mi SW 3.5 mph - N/A   Unknown
7:15 PM 13.6 °F 7.7 °F -12.1 °F 31% 30.07 in 10.0 mi SW 3.5 mph - N/A   Unknown
7:35 PM 12.0 °F 4.1 °F -11.0 °F 35% 30.07 in 10.0 mi SW 4.6 mph - N/A   Unknown
7:55 PM 13.5 °F 5.8 °F -12.8 °F 30% 30.08 in 10.0 mi SW 4.6 mph - N/A   Unknown
8:15 PM 10.4 °F 2.2 °F -9.9 °F 40% 30.08 in 10.0 mi SW 4.6 mph - N/A   Unknown
8:35 PM 12.6 °F - -12.3 °F 32% 30.08 in 10.0 mi Calm Calm - N/A   Unknown
8:55 PM 11.5 °F 3.5 °F -11.2 °F 36% 30.08 in 10.0 mi SW 4.6 mph - N/A   Unknown
9:15 PM 11.3 °F 0.7 °F -10.3 °F 37% 30.08 in 10.0 mi SW 6.9 mph - N/A   Unknown
9:35 PM 10.0 °F -0.9 °F -10.3 °F 40% 30.08 in 10.0 mi SW 6.9 mph - N/A   Unknown
9:55 PM 9.1 °F - -9.2 °F 43% 30.08 in 10.0 mi Calm Calm - N/A   Unknown
10:15 PM 10.4 °F - -10.7 °F 38% 30.08 in 10.0 mi Calm Calm - N/A   Unknown
10:35 PM 8.1 °F - -9.0 °F 46% 30.08 in 10.0 mi Calm Calm - N/A   Unknown
10:55 PM 8.8 °F - -9.9 °F 42% 30.08 in 10.0 mi Calm Calm - N/A   Unknown
11:15 PM 8.2 °F 1.6 °F -9.8 °F 44% 30.07 in 10.0 mi SW 3.5 mph - N/A   Unknown
11:35 PM 9.1 °F 0.8 °F -9.4 °F 43% 30.07 in 10.0 mi SW 4.6 mph - N/A   Unknown
11:55 PM 6.6 °F -2.2 °F -9.4 °F 48% 30.07 in 10.0 mi SW 4.6 mph - N/A   Unknown